Year,Month,Day,Hour,Minute,Value (Times are PST for insolation in W/m^2)
2016,12,04,00,00,0.00
2016,12,04,00,01,0.00
2016,12,04,00,02,0.00
2016,12,04,00,03,0.00
2016,12,04,00,04,0.00
2016,12,04,00,05,0.00
2016,12,04,00,06,0.00
2016,12,04,00,07,0.00
2016,12,04,00,08,0.00
2016,12,04,00,09,0.00
2016,12,04,00,10,0.00
2016,12,04,00,11,0.00
2016,12,04,00,12,0.00
2016,12,04,00,13,0.00
2016,12,04,00,14,0.00
2016,12,04,00,15,0.00
2016,12,04,00,16,0.00
2016,12,04,00,17,0.00
2016,12,04,00,18,0.00
2016,12,04,00,19,0.00
2016,12,04,00,20,0.00
2016,12,04,00,21,0.00
2016,12,04,00,22,0.00
2016,12,04,00,23,0.00
2016,12,04,00,24,0.00
2016,12,04,00,25,0.00
2016,12,04,00,26,0.00
2016,12,04,00,27,0.00
2016,12,04,00,28,0.00
2016,12,04,00,29,0.00
2016,12,04,00,30,0.00
2016,12,04,00,31,0.00
2016,12,04,00,32,0.00
2016,12,04,00,33,0.00
2016,12,04,00,34,0.00
2016,12,04,00,35,0.00
2016,12,04,00,36,0.00
2016,12,04,00,37,0.00
2016,12,04,00,38,0.00
2016,12,04,00,39,0.00
2016,12,04,00,40,0.00
2016,12,04,00,41,0.00
2016,12,04,00,42,0.00
2016,12,04,00,43,0.00
2016,12,04,00,44,0.00
2016,12,04,00,45,0.00
2016,12,04,00,46,0.00
2016,12,04,00,47,0.00
2016,12,04,00,48,0.00
2016,12,04,00,49,0.00
2016,12,04,00,50,0.00
2016,12,04,00,51,0.00
2016,12,04,00,52,0.00
2016,12,04,00,53,0.00
2016,12,04,00,54,0.00
2016,12,04,00,55,0.00
2016,12,04,00,56,0.00
2016,12,04,00,57,0.00
2016,12,04,00,58,0.00
2016,12,04,00,59,0.00
2016,12,04,01,00,0.00
2016,12,04,01,01,0.00
2016,12,04,01,02,0.00
2016,12,04,01,03,0.00
2016,12,04,01,04,0.00
2016,12,04,01,05,0.00
2016,12,04,01,06,0.00
2016,12,04,01,07,0.00
2016,12,04,01,08,0.00
2016,12,04,01,09,0.00
2016,12,04,01,10,0.00
2016,12,04,01,11,0.00
2016,12,04,01,12,0.00
2016,12,04,01,13,0.00
2016,12,04,01,14,0.00
2016,12,04,01,15,0.00
2016,12,04,01,16,0.00
2016,12,04,01,17,0.00
2016,12,04,01,18,0.00
2016,12,04,01,19,0.00
2016,12,04,01,20,0.00
2016,12,04,01,21,0.00
2016,12,04,01,22,0.00
2016,12,04,01,23,0.00
2016,12,04,01,24,0.00
2016,12,04,01,25,0.00
2016,12,04,01,26,0.00
2016,12,04,01,27,0.00
2016,12,04,01,28,0.00
2016,12,04,01,29,0.00
2016,12,04,01,30,0.00
2016,12,04,01,31,0.00
2016,12,04,01,32,0.00
2016,12,04,01,33,0.00
2016,12,04,01,34,0.00
2016,12,04,01,35,0.00
2016,12,04,01,36,0.00
2016,12,04,01,37,0.00
2016,12,04,01,38,0.00
2016,12,04,01,39,0.00
2016,12,04,01,40,0.00
2016,12,04,01,41,0.00
2016,12,04,01,42,0.00
2016,12,04,01,43,0.00
2016,12,04,01,44,0.00
2016,12,04,01,45,0.00
2016,12,04,01,46,0.00
2016,12,04,01,47,0.00
2016,12,04,01,48,0.00
2016,12,04,01,49,0.00
2016,12,04,01,50,0.00
2016,12,04,01,51,0.00
2016,12,04,01,52,0.00
2016,12,04,01,53,0.00
2016,12,04,01,54,0.00
2016,12,04,01,55,0.00
2016,12,04,01,56,0.00
2016,12,04,01,57,0.00
2016,12,04,01,58,0.00
2016,12,04,01,59,0.00
2016,12,04,02,00,0.00
2016,12,04,02,01,0.00
2016,12,04,02,02,0.00
2016,12,04,02,03,0.00
2016,12,04,02,04,0.00
2016,12,04,02,05,0.00
2016,12,04,02,06,0.00
2016,12,04,02,07,0.00
2016,12,04,02,08,0.00
2016,12,04,02,09,0.00
2016,12,04,02,10,0.00
2016,12,04,02,11,0.00
2016,12,04,02,12,0.00
2016,12,04,02,13,0.00
2016,12,04,02,14,0.00
2016,12,04,02,15,0.00
2016,12,04,02,16,0.00
2016,12,04,02,17,0.00
2016,12,04,02,18,0.00
2016,12,04,02,19,0.00
2016,12,04,02,20,0.00
2016,12,04,02,21,0.00
2016,12,04,02,22,0.00
2016,12,04,02,23,0.00
2016,12,04,02,24,0.00
2016,12,04,02,25,0.00
2016,12,04,02,26,0.00
2016,12,04,02,27,0.00
2016,12,04,02,28,0.00
2016,12,04,02,29,0.00
2016,12,04,02,30,0.00
2016,12,04,02,31,0.00
2016,12,04,02,32,0.00
2016,12,04,02,33,0.00
2016,12,04,02,34,0.00
2016,12,04,02,35,0.00
2016,12,04,02,36,0.00
2016,12,04,02,37,0.00
2016,12,04,02,38,0.00
2016,12,04,02,39,0.00
2016,12,04,02,40,0.00
2016,12,04,02,41,0.00
2016,12,04,02,42,0.00
2016,12,04,02,43,0.00
2016,12,04,02,44,0.00
2016,12,04,02,45,0.00
2016,12,04,02,46,0.00
2016,12,04,02,47,0.00
2016,12,04,02,48,0.00
2016,12,04,02,49,0.00
2016,12,04,02,50,0.00
2016,12,04,02,51,0.00
2016,12,04,02,52,0.00
2016,12,04,02,53,0.00
2016,12,04,02,54,0.00
2016,12,04,02,55,0.00
2016,12,04,02,56,0.00
2016,12,04,02,57,0.00
2016,12,04,02,58,0.00
2016,12,04,02,59,0.00
2016,12,04,03,00,0.00
2016,12,04,03,01,0.00
2016,12,04,03,02,0.00
2016,12,04,03,03,0.00
2016,12,04,03,06,0.00
2016,12,04,03,07,0.00
2016,12,04,03,08,0.00
2016,12,04,03,09,0.00
2016,12,04,03,10,0.00
2016,12,04,03,11,0.00
2016,12,04,03,12,0.00
2016,12,04,03,13,0.00
2016,12,04,03,14,0.00
2016,12,04,03,15,0.00
2016,12,04,03,16,0.00
2016,12,04,03,17,0.00
2016,12,04,03,18,0.00
2016,12,04,03,19,0.00
2016,12,04,03,20,0.00
2016,12,04,03,21,0.00
2016,12,04,03,22,0.00
2016,12,04,03,23,0.00
2016,12,04,03,24,0.00
2016,12,04,03,25,0.00
2016,12,04,03,26,0.00
2016,12,04,03,27,0.00
2016,12,04,03,28,0.00
2016,12,04,03,29,0.00
2016,12,04,03,30,0.00
2016,12,04,03,31,0.00
2016,12,04,03,32,0.00
2016,12,04,03,33,0.00
2016,12,04,03,34,0.00
2016,12,04,03,35,0.00
2016,12,04,03,36,0.00
2016,12,04,03,37,0.00
2016,12,04,03,38,0.00
2016,12,04,03,39,0.00
2016,12,04,03,40,0.00
2016,12,04,03,41,0.00
2016,12,04,03,42,0.00
2016,12,04,03,43,0.00
2016,12,04,03,44,0.00
2016,12,04,03,45,0.00
2016,12,04,03,46,0.00
2016,12,04,03,47,0.00
2016,12,04,03,48,0.00
2016,12,04,03,49,0.00
2016,12,04,03,50,0.00
2016,12,04,03,51,0.00
2016,12,04,03,52,0.00
2016,12,04,03,53,0.00
2016,12,04,03,54,0.00
2016,12,04,03,55,0.00
2016,12,04,03,56,0.00
2016,12,04,03,57,0.00
2016,12,04,03,58,0.00
2016,12,04,03,59,0.00
2016,12,04,04,00,0.00
2016,12,04,04,01,0.00
2016,12,04,04,02,0.00
2016,12,04,04,03,0.00
2016,12,04,04,04,0.00
2016,12,04,04,05,0.00
2016,12,04,04,06,0.00
2016,12,04,04,07,0.00
2016,12,04,04,08,0.00
2016,12,04,04,09,0.00
2016,12,04,04,10,0.00
2016,12,04,04,11,0.00
2016,12,04,04,12,0.00
2016,12,04,04,13,0.00
2016,12,04,04,14,0.00
2016,12,04,04,15,0.00
2016,12,04,04,16,0.00
2016,12,04,04,17,0.00
2016,12,04,04,18,0.00
2016,12,04,04,19,0.00
2016,12,04,04,20,0.00
2016,12,04,04,21,0.00
2016,12,04,04,22,0.00
2016,12,04,04,23,0.00
2016,12,04,04,24,0.00
2016,12,04,04,25,0.00
2016,12,04,04,26,0.00
2016,12,04,04,27,0.00
2016,12,04,04,28,0.00
2016,12,04,04,29,0.00
2016,12,04,04,30,0.00
2016,12,04,04,31,0.00
2016,12,04,04,32,0.00
2016,12,04,04,33,0.00
2016,12,04,04,34,0.00
2016,12,04,04,35,0.00
2016,12,04,04,36,0.00
2016,12,04,04,37,0.00
2016,12,04,04,38,0.00
2016,12,04,04,39,0.00
2016,12,04,04,40,0.00
2016,12,04,04,41,0.00
2016,12,04,04,42,0.00
2016,12,04,04,43,0.00
2016,12,04,04,44,0.00
2016,12,04,04,45,0.00
2016,12,04,04,46,0.00
2016,12,04,04,47,0.00
2016,12,04,04,48,0.00
2016,12,04,04,49,0.00
2016,12,04,04,50,0.00
2016,12,04,04,51,0.00
2016,12,04,04,52,0.00
2016,12,04,04,53,0.00
2016,12,04,04,54,0.00
2016,12,04,04,55,0.00
2016,12,04,04,56,0.00
2016,12,04,04,57,0.00
2016,12,04,04,58,0.00
2016,12,04,04,59,0.00
2016,12,04,05,00,0.00
2016,12,04,05,01,0.00
2016,12,04,05,02,0.00
2016,12,04,05,03,0.00
2016,12,04,05,04,0.00
2016,12,04,05,05,0.00
2016,12,04,05,06,0.00
2016,12,04,05,07,0.00
2016,12,04,05,08,0.00
2016,12,04,05,09,0.00
2016,12,04,05,10,0.00
2016,12,04,05,11,0.00
2016,12,04,05,12,0.00
2016,12,04,05,13,0.00
2016,12,04,05,14,0.00
2016,12,04,05,15,0.00
2016,12,04,05,16,0.00
2016,12,04,05,17,0.00
2016,12,04,05,18,0.00
2016,12,04,05,19,0.00
2016,12,04,05,20,0.00
2016,12,04,05,21,0.00
2016,12,04,05,22,0.00
2016,12,04,05,23,0.00
2016,12,04,05,24,0.00
2016,12,04,05,25,0.00
2016,12,04,05,26,0.00
2016,12,04,05,27,0.00
2016,12,04,05,28,0.00
2016,12,04,05,29,0.00
2016,12,04,05,30,0.00
2016,12,04,05,31,0.00
2016,12,04,05,32,0.00
2016,12,04,05,33,0.00
2016,12,04,05,34,0.00
2016,12,04,05,35,0.00
2016,12,04,05,36,0.00
2016,12,04,05,37,0.00
2016,12,04,05,38,0.00
2016,12,04,05,39,0.00
2016,12,04,05,40,0.00
2016,12,04,05,41,0.00
2016,12,04,05,42,0.00
2016,12,04,05,43,0.00
2016,12,04,05,44,0.00
2016,12,04,05,45,0.00
2016,12,04,05,46,0.00
2016,12,04,05,47,0.00
2016,12,04,05,48,0.00
2016,12,04,05,49,0.00
2016,12,04,05,50,0.00
2016,12,04,05,51,0.00
2016,12,04,05,52,0.00
2016,12,04,05,53,0.00
2016,12,04,05,54,0.00
2016,12,04,05,55,0.00
2016,12,04,05,56,0.00
2016,12,04,05,57,0.00
2016,12,04,05,58,0.00
2016,12,04,05,59,0.00
2016,12,04,06,00,0.00
2016,12,04,06,01,0.00
2016,12,04,06,02,0.00
2016,12,04,06,03,0.00
2016,12,04,06,04,0.00
2016,12,04,06,05,0.00
2016,12,04,06,06,0.00
2016,12,04,06,07,0.00
2016,12,04,06,08,0.00
2016,12,04,06,09,0.00
2016,12,04,06,10,0.00
2016,12,04,06,11,0.00
2016,12,04,06,12,0.00
2016,12,04,06,13,0.00
2016,12,04,06,14,0.00
2016,12,04,06,15,0.00
2016,12,04,06,16,0.00
2016,12,04,06,17,0.00
2016,12,04,06,18,0.00
2016,12,04,06,19,0.00
2016,12,04,06,20,0.00
2016,12,04,06,21,0.00
2016,12,04,06,22,0.00
2016,12,04,06,23,0.00
2016,12,04,06,24,0.00
2016,12,04,06,25,0.00
2016,12,04,06,26,0.00
2016,12,04,06,27,0.00
2016,12,04,06,28,0.00
2016,12,04,06,29,0.00
2016,12,04,06,30,0.00
2016,12,04,06,31,0.00
2016,12,04,06,32,0.00
2016,12,04,06,33,0.00
2016,12,04,06,34,0.00
2016,12,04,06,35,0.00
2016,12,04,06,36,0.00
2016,12,04,06,37,0.00
2016,12,04,06,38,0.00
2016,12,04,06,39,0.00
2016,12,04,06,40,0.00
2016,12,04,06,41,0.00
2016,12,04,06,42,0.00
2016,12,04,06,43,0.00
2016,12,04,06,44,0.00
2016,12,04,06,45,0.00
2016,12,04,06,46,0.00
2016,12,04,06,47,0.00
2016,12,04,06,48,0.00
2016,12,04,06,49,0.00
2016,12,04,06,50,0.00
2016,12,04,06,51,0.00
2016,12,04,06,52,0.00
2016,12,04,06,53,0.00
2016,12,04,06,54,0.00
2016,12,04,06,55,0.00
2016,12,04,06,56,0.00
2016,12,04,06,57,0.00
2016,12,04,06,58,0.00
2016,12,04,06,59,0.00
2016,12,04,07,00,0.00
2016,12,04,07,01,0.00
2016,12,04,07,02,0.00
2016,12,04,07,03,0.00
2016,12,04,07,04,0.00
2016,12,04,07,05,0.00
2016,12,04,07,06,0.00
2016,12,04,07,07,0.00
2016,12,04,07,08,0.00
2016,12,04,07,09,0.00
2016,12,04,07,10,0.00
2016,12,04,07,11,0.00
2016,12,04,07,12,0.00
2016,12,04,07,13,0.00
2016,12,04,07,14,0.00
2016,12,04,07,15,0.00
2016,12,04,07,16,0.00
2016,12,04,07,17,0.00
2016,12,04,07,18,0.00
2016,12,04,07,19,0.00
2016,12,04,07,20,0.00
2016,12,04,07,21,0.00
2016,12,04,07,22,0.00
2016,12,04,07,23,0.00
2016,12,04,07,24,0.00
2016,12,04,07,25,0.00
2016,12,04,07,26,0.00
2016,12,04,07,27,0.00
2016,12,04,07,28,0.00
2016,12,04,07,29,0.00
2016,12,04,07,30,0.00
2016,12,04,07,31,0.00
2016,12,04,07,32,0.00
2016,12,04,07,33,0.00
2016,12,04,07,34,0.00
2016,12,04,07,35,0.00
2016,12,04,07,36,0.00
2016,12,04,07,37,0.00
2016,12,04,07,38,0.00
2016,12,04,07,39,0.00
2016,12,04,07,40,0.00
2016,12,04,07,41,0.00
2016,12,04,07,42,0.00
2016,12,04,07,43,0.00
2016,12,04,07,44,0.00
2016,12,04,07,45,0.00
2016,12,04,07,46,0.00
2016,12,04,07,47,0.00
2016,12,04,07,48,0.00
2016,12,04,07,49,0.00
2016,12,04,07,50,0.00
2016,12,04,07,51,0.00
2016,12,04,07,52,0.00
2016,12,04,07,53,0.00
2016,12,04,07,54,0.00
2016,12,04,07,55,0.00
2016,12,04,07,56,1.00
2016,12,04,07,57,5.00
2016,12,04,07,58,5.00
2016,12,04,07,59,5.00
2016,12,04,08,00,5.00
2016,12,04,08,01,5.00
2016,12,04,08,02,5.40
2016,12,04,08,03,7.00
2016,12,04,08,04,7.00
2016,12,04,08,05,7.00
2016,12,04,08,06,7.00
2016,12,04,08,07,8.90
2016,12,04,08,08,9.00
2016,12,04,08,09,9.00
2016,12,04,08,10,9.00
2016,12,04,08,11,9.00
2016,12,04,08,12,10.60
2016,12,04,08,13,11.00
2016,12,04,08,14,11.00
2016,12,04,08,15,11.00
2016,12,04,08,16,11.00
2016,12,04,08,17,11.60
2016,12,04,08,18,12.00
2016,12,04,08,19,12.00
2016,12,04,08,20,12.00
2016,12,04,08,21,12.00
2016,12,04,08,22,12.00
2016,12,04,08,23,13.40
2016,12,04,08,24,14.00
2016,12,04,08,25,14.00
2016,12,04,08,26,14.00
2016,12,04,08,27,14.00
2016,12,04,08,28,14.00
2016,12,04,08,29,15.50
2016,12,04,08,30,16.00
2016,12,04,08,31,16.00
2016,12,04,08,32,16.00
2016,12,04,08,33,16.00
2016,12,04,08,34,16.00
2016,12,04,08,35,16.00
2016,12,04,08,36,17.80
2016,12,04,08,37,18.00
2016,12,04,08,38,18.00
2016,12,04,08,39,18.00
2016,12,04,08,40,18.00
2016,12,04,08,41,18.00
2016,12,04,08,42,18.00
2016,12,04,08,43,19.00
2016,12,04,08,44,19.00
2016,12,04,08,45,19.00
2016,12,04,08,46,19.00
2016,12,04,08,47,19.00
2016,12,04,08,48,19.00
2016,12,04,08,49,19.00
2016,12,04,08,50,19.00
2016,12,04,08,51,19.00
2016,12,04,08,52,19.00
2016,12,04,08,53,19.00
2016,12,04,08,54,19.00
2016,12,04,08,55,19.00
2016,12,04,08,56,19.80
2016,12,04,08,57,21.00
2016,12,04,08,58,21.00
2016,12,04,08,59,21.00
2016,12,04,09,00,21.00
2016,12,04,09,01,21.00
2016,12,04,09,02,21.00
2016,12,04,09,03,21.00
2016,12,04,09,04,21.00
2016,12,04,09,05,21.00
2016,12,04,09,06,21.00
2016,12,04,09,07,21.00
2016,12,04,09,08,21.00
2016,12,04,09,09,21.00
2016,12,04,09,10,21.00
2016,12,04,09,11,22.70
2016,12,04,09,12,23.00
2016,12,04,09,13,23.60
2016,12,04,09,14,25.40
2016,12,04,09,15,25.40
2016,12,04,09,16,25.80
2016,12,04,09,17,31.40
2016,12,04,09,18,41.10
2016,12,04,09,19,63.50
2016,12,04,09,20,95.00
2016,12,04,09,21,116.10
2016,12,04,09,22,104.10
2016,12,04,09,23,66.00
2016,12,04,09,24,41.40
2016,12,04,09,25,51.90
2016,12,04,09,26,49.00
2016,12,04,09,27,39.50
2016,12,04,09,28,39.40
2016,12,04,09,29,39.60
2016,12,04,09,30,45.50
2016,12,04,09,31,66.70
2016,12,04,09,32,114.00
2016,12,04,09,33,133.20
2016,12,04,09,34,134.20
2016,12,04,09,35,131.90
2016,12,04,09,36,130.00
2016,12,04,09,37,131.40
2016,12,04,09,38,134.00
2016,12,04,09,39,134.70
2016,12,04,09,40,136.60
2016,12,04,09,41,137.20
2016,12,04,09,42,139.60
2016,12,04,09,43,141.40
2016,12,04,09,44,142.00
2016,12,04,09,45,136.40
2016,12,04,09,46,136.60
2016,12,04,09,47,146.40
2016,12,04,09,48,149.00
2016,12,04,09,49,149.90
2016,12,04,09,50,152.20
2016,12,04,09,51,153.00
2016,12,04,09,52,153.00
2016,12,04,09,53,154.70
2016,12,04,09,54,153.90
2016,12,04,09,55,156.90
2016,12,04,09,56,159.20
2016,12,04,09,57,161.50
2016,12,04,09,58,162.90
2016,12,04,09,59,165.30
2016,12,04,10,00,167.60
2016,12,04,10,01,169.00
2016,12,04,10,02,170.30
2016,12,04,10,03,171.80
2016,12,04,10,04,172.10
2016,12,04,10,05,174.00
2016,12,04,10,06,174.70
2016,12,04,10,07,177.00
2016,12,04,10,08,178.00
2016,12,04,10,09,178.80
2016,12,04,10,10,181.00
2016,12,04,10,11,183.00
2016,12,04,10,12,183.70
2016,12,04,10,13,185.50
2016,12,04,10,14,184.10
2016,12,04,10,15,185.20
2016,12,04,10,16,187.80
2016,12,04,10,17,188.50
2016,12,04,10,18,190.70
2016,12,04,10,19,192.50
2016,12,04,10,20,192.30
2016,12,04,10,21,192.00
2016,12,04,10,22,193.60
2016,12,04,10,23,196.50
2016,12,04,10,24,196.60
2016,12,04,10,25,199.60
2016,12,04,10,26,201.40
2016,12,04,10,27,202.00
2016,12,04,10,28,202.30
2016,12,04,10,29,204.50
2016,12,04,10,30,206.00
2016,12,04,10,31,206.60
2016,12,04,10,32,207.00
2016,12,04,10,33,208.70
2016,12,04,10,34,210.90
2016,12,04,10,35,211.00
2016,12,04,10,36,211.90
2016,12,04,10,37,213.60
2016,12,04,10,38,213.30
2016,12,04,10,39,213.90
2016,12,04,10,40,213.20
2016,12,04,10,41,214.00
2016,12,04,10,42,215.90
2016,12,04,10,43,219.20
2016,12,04,10,44,220.00
2016,12,04,10,45,222.70
2016,12,04,10,46,223.40
2016,12,04,10,47,225.70
2016,12,04,10,48,227.00
2016,12,04,10,49,228.20
2016,12,04,10,50,229.80
2016,12,04,10,51,230.20
2016,12,04,10,52,234.40
2016,12,04,10,53,236.00
2016,12,04,10,54,236.50
2016,12,04,10,55,237.00
2016,12,04,10,56,237.00
2016,12,04,10,57,239.00
2016,12,04,10,58,241.00
2016,12,04,10,59,241.80
2016,12,04,11,00,243.00
2016,12,04,11,01,243.60
2016,12,04,11,02,245.70
2016,12,04,11,03,246.00
2016,12,04,11,04,246.00
2016,12,04,11,05,246.00
2016,12,04,11,06,246.00
2016,12,04,11,07,246.00
2016,12,04,11,08,246.00
2016,12,04,11,09,246.00
2016,12,04,11,10,246.00
2016,12,04,11,11,246.00
2016,12,04,11,12,246.00
2016,12,04,11,13,247.50
2016,12,04,11,14,249.70
2016,12,04,11,15,250.00
2016,12,04,11,16,250.00
2016,12,04,11,17,250.00
2016,12,04,11,18,250.00
2016,12,04,11,19,250.00
2016,12,04,11,20,250.90
2016,12,04,11,21,251.00
2016,12,04,11,22,251.60
2016,12,04,11,23,253.00
2016,12,04,11,24,254.20
2016,12,04,11,25,255.00
2016,12,04,11,26,255.10
2016,12,04,11,27,257.00
2016,12,04,11,28,257.40
2016,12,04,11,29,258.90
2016,12,04,11,30,242.00
2016,12,04,11,31,240.50
2016,12,04,11,32,260.50
2016,12,04,11,33,265.00
2016,12,04,11,34,262.50
2016,12,04,11,35,258.90
2016,12,04,11,36,260.00
2016,12,04,11,37,254.40
2016,12,04,11,38,248.40
2016,12,04,11,39,232.40
2016,12,04,11,40,213.00
2016,12,04,11,41,196.00
2016,12,04,11,42,231.10
2016,12,04,11,43,213.40
2016,12,04,11,44,219.90
2016,12,04,11,45,179.50
2016,12,04,11,46,165.40
2016,12,04,11,47,156.10
2016,12,04,11,48,162.80
2016,12,04,11,49,151.00
2016,12,04,11,50,146.60
2016,12,04,11,51,144.50
2016,12,04,11,52,150.60
2016,12,04,11,53,99.00
2016,12,04,11,54,151.20
2016,12,04,11,55,173.70
2016,12,04,11,56,140.70
2016,12,04,11,57,167.60
2016,12,04,11,58,178.60
2016,12,04,11,59,196.20
2016,12,04,12,00,250.30
2016,12,04,12,01,245.90
2016,12,04,12,02,232.30
2016,12,04,12,03,220.30
2016,12,04,12,04,227.50
2016,12,04,12,05,245.20
2016,12,04,12,06,249.80
2016,12,04,12,07,244.90
2016,12,04,12,08,247.20
2016,12,04,12,09,241.20
2016,12,04,12,10,238.80
2016,12,04,12,11,235.30
2016,12,04,12,12,229.80
2016,12,04,12,13,216.80
2016,12,04,12,14,236.50
2016,12,04,12,15,238.40
2016,12,04,12,16,262.00
2016,12,04,12,17,255.80
2016,12,04,12,18,256.50
2016,12,04,12,19,252.90
2016,12,04,12,20,275.00
2016,12,04,12,21,273.50
2016,12,04,12,22,278.00
2016,12,04,12,23,278.00
2016,12,04,12,24,282.00
2016,12,04,12,25,279.10
2016,12,04,12,26,246.80
2016,12,04,12,27,248.60
2016,12,04,12,28,241.20
2016,12,04,12,29,232.10
2016,12,04,12,30,215.80
2016,12,04,12,31,209.30
2016,12,04,12,32,176.80
2016,12,04,12,33,174.20
2016,12,04,12,34,164.90
2016,12,04,12,35,160.90
2016,12,04,12,36,183.80
2016,12,04,12,37,167.50
2016,12,04,12,38,154.50
2016,12,04,12,39,150.80
2016,12,04,12,40,151.90
2016,12,04,12,41,152.00
2016,12,04,12,42,161.10
2016,12,04,12,43,156.30
2016,12,04,12,44,168.20
2016,12,04,12,45,185.80
2016,12,04,12,46,169.40
2016,12,04,12,47,133.00
2016,12,04,12,48,120.30
2016,12,04,12,49,116.20
2016,12,04,12,50,106.60
2016,12,04,12,51,102.90
2016,12,04,12,52,102.80
2016,12,04,12,53,110.10
2016,12,04,12,54,147.90
2016,12,04,12,55,135.20
2016,12,04,12,56,150.50
2016,12,04,12,57,145.00
2016,12,04,12,58,116.60
2016,12,04,12,59,90.80
2016,12,04,13,00,74.40
2016,12,04,13,01,69.80
2016,12,04,13,02,72.70
2016,12,04,13,03,72.00
2016,12,04,13,04,78.40
2016,12,04,13,05,85.40
2016,12,04,13,06,86.00
2016,12,04,13,07,86.40
2016,12,04,13,08,87.20
2016,12,04,13,09,92.30
2016,12,04,13,10,108.40
2016,12,04,13,11,106.80
2016,12,04,13,12,97.00
2016,12,04,13,13,94.20
2016,12,04,13,14,98.80
2016,12,04,13,15,102.20
2016,12,04,13,16,125.00
2016,12,04,13,17,175.30
2016,12,04,13,18,200.40
2016,12,04,13,19,189.90
2016,12,04,13,20,165.80
2016,12,04,13,21,134.70
2016,12,04,13,22,113.20
2016,12,04,13,23,105.40
2016,12,04,13,24,112.40
2016,12,04,13,25,110.60
2016,12,04,13,26,113.60
2016,12,04,13,27,123.20
2016,12,04,13,28,138.10
2016,12,04,13,29,152.90
2016,12,04,13,30,189.80
2016,12,04,13,31,182.60
2016,12,04,13,32,190.10
2016,12,04,13,33,193.20
2016,12,04,13,34,201.50
2016,12,04,13,35,202.40
2016,12,04,13,36,207.80
2016,12,04,13,37,211.90
2016,12,04,13,38,217.00
2016,12,04,13,39,220.60
2016,12,04,13,40,225.70
2016,12,04,13,41,218.40
2016,12,04,13,42,213.20
2016,12,04,13,43,209.80
2016,12,04,13,44,199.50
2016,12,04,13,45,192.40
2016,12,04,13,46,182.90
2016,12,04,13,47,168.90
2016,12,04,13,48,165.50
2016,12,04,13,49,180.40
2016,12,04,13,50,195.00
2016,12,04,13,51,194.20
2016,12,04,13,52,163.20
2016,12,04,13,53,129.80
2016,12,04,13,54,130.90
2016,12,04,13,55,126.00
2016,12,04,13,56,132.40
2016,12,04,13,57,152.40
2016,12,04,13,58,159.10
2016,12,04,13,59,154.50
2016,12,04,14,00,163.50
2016,12,04,14,01,165.80
2016,12,04,14,02,164.80
2016,12,04,14,03,154.80
2016,12,04,14,04,149.30
2016,12,04,14,05,139.80
2016,12,04,14,06,150.30
2016,12,04,14,07,165.90
2016,12,04,14,08,161.60
2016,12,04,14,09,167.80
2016,12,04,14,10,167.80
2016,12,04,14,11,163.50
2016,12,04,14,12,155.30
2016,12,04,14,13,155.60
2016,12,04,14,14,152.60
2016,12,04,14,15,149.50
2016,12,04,14,16,147.20
2016,12,04,14,17,111.30
2016,12,04,14,18,98.80
2016,12,04,14,19,110.00
2016,12,04,14,20,136.50
2016,12,04,14,21,134.50
2016,12,04,14,22,140.10
2016,12,04,14,23,125.20
2016,12,04,14,24,127.90
2016,12,04,14,25,102.00
2016,12,04,14,26,70.00
2016,12,04,14,27,63.00
2016,12,04,14,28,65.40
2016,12,04,14,29,75.00
2016,12,04,14,30,77.00
2016,12,04,14,31,87.70
2016,12,04,14,32,103.20
2016,12,04,14,33,91.40
2016,12,04,14,34,91.80
2016,12,04,14,35,78.00
2016,12,04,14,36,63.80
2016,12,04,14,37,67.10
2016,12,04,14,38,62.70
2016,12,04,14,39,54.00
2016,12,04,14,40,48.90
2016,12,04,14,41,46.20
2016,12,04,14,42,44.00
2016,12,04,14,43,41.80
2016,12,04,14,44,39.30
2016,12,04,14,45,37.30
2016,12,04,14,46,36.70
2016,12,04,14,47,34.50
2016,12,04,14,48,33.00
2016,12,04,14,49,32.50
2016,12,04,14,50,32.00
2016,12,04,14,51,32.00
2016,12,04,14,52,32.00
2016,12,04,14,53,31.40
2016,12,04,14,54,30.00
2016,12,04,14,55,30.00
2016,12,04,14,56,30.00
2016,12,04,14,57,30.00
2016,12,04,14,58,30.00
2016,12,04,14,59,30.00
2016,12,04,15,00,30.00
2016,12,04,15,01,30.00
2016,12,04,15,02,30.00
2016,12,04,15,03,31.80
2016,12,04,15,04,32.00
2016,12,04,15,05,31.30
2016,12,04,15,06,30.00
2016,12,04,15,07,30.00
2016,12,04,15,08,30.00
2016,12,04,15,09,30.00
2016,12,04,15,10,30.00
2016,12,04,15,11,30.00
2016,12,04,15,12,30.00
2016,12,04,15,13,30.00
2016,12,04,15,14,30.00
2016,12,04,15,15,30.00
2016,12,04,15,16,30.00
2016,12,04,15,17,30.00
2016,12,04,15,18,28.90
2016,12,04,15,19,28.00
2016,12,04,15,20,28.00
2016,12,04,15,21,28.00
2016,12,04,15,22,28.00
2016,12,04,15,23,28.00
2016,12,04,15,24,28.00
2016,12,04,15,25,26.60
2016,12,04,15,26,26.00
2016,12,04,15,27,26.00
2016,12,04,15,28,26.00
2016,12,04,15,29,26.00
2016,12,04,15,30,26.00
2016,12,04,15,31,26.00
2016,12,04,15,32,26.00
2016,12,04,15,33,26.00
2016,12,04,15,34,26.00
2016,12,04,15,35,26.00
2016,12,04,15,36,26.00
2016,12,04,15,37,25.30
2016,12,04,15,38,25.00
2016,12,04,15,39,25.00
2016,12,04,15,40,25.00
2016,12,04,15,41,25.00
2016,12,04,15,42,25.00
2016,12,04,15,43,25.00
2016,12,04,15,44,24.90
2016,12,04,15,45,23.00
2016,12,04,15,46,23.00
2016,12,04,15,47,23.00
2016,12,04,15,48,23.00
2016,12,04,15,49,23.00
2016,12,04,15,50,23.00
2016,12,04,15,51,22.60
2016,12,04,15,52,21.00
2016,12,04,15,53,21.00
2016,12,04,15,54,21.00
2016,12,04,15,55,21.00
2016,12,04,15,56,19.10
2016,12,04,15,57,19.00
2016,12,04,15,58,19.00
2016,12,04,15,59,18.50
2016,12,04,16,00,18.00
2016,12,04,16,01,18.00
2016,12,04,16,02,16.10
2016,12,04,16,03,16.00
2016,12,04,16,04,16.00
2016,12,04,16,05,14.90
2016,12,04,16,06,14.00
2016,12,04,16,07,14.00
2016,12,04,16,08,12.10
2016,12,04,16,09,12.00
2016,12,04,16,10,11.60
2016,12,04,16,11,11.00
2016,12,04,16,12,11.00
2016,12,04,16,13,9.30
2016,12,04,16,14,8.70
2016,12,04,16,15,7.00
2016,12,04,16,16,6.10
2016,12,04,16,17,5.00
2016,12,04,16,18,5.00
2016,12,04,16,19,0.50
2016,12,04,16,20,0.00
2016,12,04,16,21,0.00
2016,12,04,16,22,0.00
2016,12,04,16,23,0.00
2016,12,04,16,24,0.00
2016,12,04,16,25,0.00
2016,12,04,16,26,0.00
2016,12,04,16,27,0.00
2016,12,04,16,28,0.00
2016,12,04,16,29,0.00
2016,12,04,16,30,0.00
2016,12,04,16,31,0.00
2016,12,04,16,32,0.00
2016,12,04,16,33,0.00
2016,12,04,16,34,0.00
2016,12,04,16,35,0.00
2016,12,04,16,36,0.00
2016,12,04,16,37,0.00
2016,12,04,16,38,0.00
2016,12,04,16,39,0.00
2016,12,04,16,40,0.00
2016,12,04,16,41,0.00
2016,12,04,16,42,0.00
2016,12,04,16,43,0.00
2016,12,04,16,44,0.00
2016,12,04,16,45,0.00
2016,12,04,16,46,0.00
2016,12,04,16,47,0.00
2016,12,04,16,48,0.00
2016,12,04,16,49,0.00
2016,12,04,16,50,0.00
2016,12,04,16,51,0.00
2016,12,04,16,52,0.00
2016,12,04,16,53,0.00
2016,12,04,16,54,0.00
2016,12,04,16,55,0.00
2016,12,04,16,56,0.00
2016,12,04,16,57,0.00
2016,12,04,16,58,0.00
2016,12,04,16,59,0.00
2016,12,04,17,00,0.00
2016,12,04,17,01,0.00
2016,12,04,17,02,0.00
2016,12,04,17,03,0.00
2016,12,04,17,04,0.00
2016,12,04,17,05,0.00
2016,12,04,17,06,0.00
2016,12,04,17,07,0.00
2016,12,04,17,08,0.00
2016,12,04,17,09,0.00
2016,12,04,17,10,0.00
2016,12,04,17,11,0.00
2016,12,04,17,12,0.00
2016,12,04,17,13,0.00
2016,12,04,17,14,0.00
2016,12,04,17,15,0.00
2016,12,04,17,16,0.00
2016,12,04,17,17,0.00
2016,12,04,17,18,0.00
2016,12,04,17,19,0.00
2016,12,04,17,20,0.00
2016,12,04,17,21,0.00
2016,12,04,17,22,0.00
2016,12,04,17,23,0.00
2016,12,04,17,24,0.00
2016,12,04,17,25,0.00
2016,12,04,17,26,0.00
2016,12,04,17,27,0.00
2016,12,04,17,28,0.00
2016,12,04,17,29,0.00
2016,12,04,17,30,0.00
2016,12,04,17,31,0.00
2016,12,04,17,32,0.00
2016,12,04,17,33,0.00